Orbital elements of ONEWEB-0006
| Launched | 26 February 2019 |
| Flight ended | – |
| Launch site | Europe's Spaceport, Kourou, French Guiana |
| Owner | United Kingdom |
| NORAD ID | 44061 |
| Date fetched |
Epoch osculation |
Inc. [°] |
Ecc. | RA asc node [hr] |
Arg Peri. [°] |
Mean anom [°] |
Mean motion [rev/day] |
Abs. mag |
| Date fetched |
Epoch osculation |
Inc. [°] |
Ecc. | RA asc node [hr] |
Arg Peri. [°] |
Mean anom [°] |
Mean motion [rev/day] |
Abs. mag |
| 2026 May 05 17:57 | 2026 May 05 10:43:13 | 87.8974 | 0.00018 | 17.8469 | 92.6845 | 267.4488 | 13.15549 | – |
| 2026 May 04 17:57 | 2026 May 04 10:59:25 | 87.8972 | 0.00018 | 17.8600 | 92.9650 | 267.4488 | 13.15549 | – |
| 2026 May 03 17:57 | 2026 May 03 11:15:38 | 87.8969 | 0.00018 | 17.8732 | 91.2533 | 267.4488 | 13.15549 | – |
| 2026 May 02 17:57 | 2026 May 02 09:42:18 | 87.8966 | 0.00019 | 17.8874 | 91.9020 | 267.4488 | 13.15549 | – |
| 2026 May 01 17:56 | 2026 May 01 09:58:31 | 87.8965 | 0.00019 | 17.9006 | 90.5096 | 267.4488 | 13.15549 | – |
| 2026 Apr 30 17:56 | 2026 Apr 30 10:14:43 | 87.8966 | 0.00019 | 17.9137 | 90.7202 | 267.4488 | 13.15549 | – |
| 2026 Apr 29 17:57 | 2026 Apr 29 03:12:48 | 87.8966 | 0.00019 | 17.9309 | 91.1083 | 267.4488 | 13.15549 | – |
| 2026 Apr 28 17:56 | 2026 Apr 28 10:47:06 | 87.8963 | 0.00019 | 17.9400 | 91.1980 | 267.4488 | 13.15549 | – |
| 2026 Apr 27 17:58 | 2026 Apr 27 11:03:18 | 87.8961 | 0.00019 | 17.9531 | 91.3905 | 267.4488 | 13.15549 | – |
| 2026 Apr 26 17:58 | 2026 Apr 26 11:19:31 | 87.8960 | 0.00018 | 17.9663 | 90.7627 | 267.4488 | 13.15549 | – |
| 2026 Apr 25 17:58 | 2026 Apr 25 11:35:43 | 87.8960 | 0.00018 | 17.9795 | 90.4907 | 267.4488 | 13.15549 | – |
| 2026 Apr 24 17:59 | 2026 Apr 24 11:51:56 | 87.8957 | 0.00019 | 17.9927 | 90.8575 | 267.4488 | 13.15549 | – |
| 2026 Apr 23 17:57 | 2026 Apr 23 03:00:31 | 87.8958 | 0.00019 | 18.0109 | 91.2154 | 267.4488 | 13.15549 | – |
| 2026 Apr 22 17:57 | 2026 Apr 21 21:48:10 | 87.8958 | 0.00019 | 18.0271 | 90.8767 | 267.4488 | 13.15549 | – |
| 2026 Apr 21 17:57 | 2026 Apr 21 09:01:31 | 87.8954 | 0.00019 | 18.0342 | 90.5818 | 267.4488 | 13.15549 | – |
| 2026 Apr 20 17:57 | 2026 Apr 20 09:17:43 | 87.8953 | 0.00019 | 18.0473 | 90.6070 | 267.4488 | 13.15549 | – |
| 2026 Apr 19 17:58 | 2026 Apr 19 11:23:27 | 87.8950 | 0.00019 | 18.0595 | 90.5629 | 267.4488 | 13.15549 | – |
| 2026 Apr 18 17:56 | 2026 Apr 18 04:21:34 | 87.8946 | 0.00019 | 18.0767 | 90.9462 | 267.4488 | 13.15549 | – |
| 2026 Apr 16 17:57 | 2026 Apr 16 04:53:59 | 87.8947 | 0.00019 | 18.1031 | 90.8358 | 267.4488 | 13.15549 | – |
| 2026 Apr 14 17:57 | 2026 Apr 14 03:36:53 | 87.8946 | 0.00019 | 18.1304 | 90.8762 | 267.4488 | 13.15549 | – |
| 2026 Apr 13 17:57 | 2026 Apr 13 03:53:05 | 87.8945 | 0.00019 | 18.1436 | 90.9403 | 267.4488 | 13.15549 | – |
| 2026 Apr 12 17:57 | 2026 Apr 12 11:27:23 | 87.8945 | 0.00019 | 18.1527 | 91.0188 | 267.4488 | 13.15549 | – |
| 2026 Apr 11 17:57 | 2026 Apr 11 11:43:35 | 87.8944 | 0.00020 | 18.1659 | 91.4154 | 267.4488 | 13.15549 | – |
| 2026 Apr 10 17:58 | 2026 Apr 10 04:41:43 | 87.8944 | 0.00019 | 18.1831 | 91.0804 | 267.4488 | 13.15549 | – |
| 2026 Apr 09 18:01 | 2026 Apr 08 23:29:21 | 87.8941 | 0.00019 | 18.1993 | 91.4044 | 267.4488 | 13.15549 | – |
| 2026 Apr 08 17:57 | 2026 Apr 08 05:14:08 | 87.8939 | 0.00019 | 18.2095 | 91.7885 | 267.4488 | 13.15549 | – |